| time (UTC) | temp F | wind direction | speed MPH | gust MPH | rain 1hr in | rain 24hr in | rain mn in | humidity % | barometer mb |
| 20260510173949 | 50 | 145 | 3.0 | 3.0 | 0.00 | 0.00 | 0.00 | 62 | 1026.7 |
| 20260510172947 | 50 | 144 | 0.0 | 0.0 | 0.00 | 0.00 | 0.00 | 64 | 1026.7 |
| 20260510171945 | 48 | 144 | 3.0 | 3.0 | 0.00 | 0.00 | 0.00 | 67 | 1026.6 |
| 20260510170945 | 47 | 135 | 0.0 | 0.0 | 0.00 | 0.00 | 0.00 | 68 | 1026.6 |
| 20260510165943 | 48 | 131 | 1.0 | 1.0 | 0.00 | 0.00 | 0.00 | 66 | 1026.6 |
| 20260510164943 | 47 | 140 | 2.0 | 2.0 | 0.00 | 0.00 | 0.00 | 70 | 1026.7 |
| 20260510163940 | 46 | 138 | 1.0 | 1.0 | 0.00 | 0.00 | 0.00 | 74 | 1026.5 |
| 20260510162937 | 46 | 138 | 1.0 | 1.0 | 0.00 | 0.00 | 0.00 | 73 | 1026.4 |
| 20260510161936 | 45 | 146 | 0.0 | 0.0 | 0.00 | 0.00 | 0.00 | 76 | 1026.2 |
| 20260510160935 | 44 | 146 | 0.0 | 0.0 | 0.00 | 0.00 | 0.00 | 78 | 1026.4 |
| 20260510155930 | 44 | 147 | 1.0 | 1.0 | 0.00 | 0.00 | 0.00 | 78 | 1026.1 |
| 20260510154930 | 44 | 148 | 0.0 | 0.0 | 0.00 | 0.00 | 0.00 | 78 | 1026.2 |
| 20260510153925 | 44 | 142 | 1.0 | 1.0 | 0.00 | 0.00 | 0.00 | 78 | 1026.4 |
| 20260510152925 | 44 | 166 | 0.0 | 1.0 | 0.00 | 0.00 | 0.00 | 78 | 1026.0 |
| 20260510151924 | 45 | 166 | 0.0 | 0.0 | 0.00 | 0.00 | 0.00 | 77 | 1026.0 |
| 20260510150924 | 45 | 170 | 1.0 | 1.0 | 0.00 | 0.00 | 0.00 | 75 | 1026.0 |
| 20260510145922 | 45 | 171 | 0.0 | 0.0 | 0.00 | 0.00 | 0.00 | 77 | 1025.7 |
| 20260510144921 | 45 | 172 | 2.0 | 2.0 | 0.00 | 0.00 | 0.00 | 77 | 1026.1 |
| 20260510143918 | 44 | 138 | 1.0 | 1.0 | 0.00 | 0.00 | 0.00 | 80 | 1025.8 |
| 20260510142918 | 43 | 133 | 0.0 | 0.0 | 0.00 | 0.00 | 0.00 | 84 | 1026.0 |
| 20260510141917 | 41 | 133 | 0.0 | 0.0 | 0.00 | 0.00 | 0.00 | 86 | 1025.8 |
| 20260510140917 | 41 | 133 | 0.0 | 0.0 | 0.00 | 0.00 | 0.00 | 86 | 1026.2 |
| 20260510135913 | 41 | 100 | 2.0 | 2.0 | 0.00 | 0.00 | 0.00 | 87 | 1026.1 |
| 20260510134912 | 41 | 133 | 0.0 | 0.0 | 0.00 | 0.00 | 0.00 | 86 | 1025.8 |
| 20260510133911 | 41 | 132 | 0.0 | 0.0 | 0.00 | 0.00 | 0.00 | 87 | 1025.8 |
| 20260510132908 | 41 | 138 | 0.0 | 0.0 | 0.00 | 0.00 | 0.00 | 87 | 1025.7 |
| 20260510131909 | 41 | 138 | 0.0 | 0.0 | 0.00 | 0.00 | 0.00 | 87 | 1025.6 |
| 20260510130908 | 41 | 131 | 1.0 | 1.0 | 0.00 | 0.00 | 0.00 | 87 | 1025.2 |
| 20260510125908 | 41 | 141 | 0.0 | 0.0 | 0.00 | 0.00 | 0.00 | 87 | 1025.2 |
| 20260510124908 | 40 | 133 | 0.0 | 0.0 | 0.00 | 0.00 | 0.00 | 87 | 1025.3 |
| 20260510123905 | 40 | 137 | 0.0 | 0.0 | 0.00 | 0.00 | 0.00 | 87 | 1025.5 |
| 20260510122904 | 40 | 130 | 1.0 | 1.0 | 0.00 | 0.00 | 0.00 | 87 | 1025.1 |
| 20260510121901 | 40 | 140 | 1.0 | 1.0 | 0.00 | 0.00 | 0.00 | 88 | 1025.2 |
| 20260510120856 | 40 | 130 | 1.0 | 1.0 | 0.00 | 0.00 | 0.00 | 88 | 1025.0 |
| 20260510115854 | 40 | 132 | 0.0 | 0.0 | 0.00 | 0.00 | 0.00 | 88 | 1024.5 |
| 20260510114853 | 40 | 128 | 0.0 | 0.0 | 0.00 | 0.00 | 0.00 | 88 | 1024.7 |
| 20260510113851 | 40 | 136 | 1.0 | 1.0 | 0.00 | 0.00 | 0.00 | 89 | 1024.6 |
| 20260510112850 | 40 | 143 | 1.0 | 1.0 | 0.00 | 0.00 | 0.00 | 89 | 1024.6 |
| 20260510111848 | 40 | 139 | 0.0 | 1.0 | 0.00 | 0.00 | 0.00 | 91 | 1024.6 |
| 20260510110845 | 39 | 195 | 2.0 | 3.0 | 0.00 | 0.00 | 0.00 | 91 | 1024.5 |
| 20260510105845 | 39 | 64 | 3.0 | 4.0 | 0.00 | 0.00 | 0.00 | 91 | 1024.5 |
| 20260510104841 | 39 | 144 | 2.0 | 2.0 | 0.00 | 0.00 | 0.00 | 91 | 1024.3 |
| 20260510103840 | 39 | 63 | 2.0 | 3.0 | 0.00 | 0.00 | 0.00 | 91 | 1024.5 |
| 20260510102838 | 40 | 137 | 0.0 | 0.0 | 0.00 | 0.00 | 0.00 | 91 | 1024.5 |
| 20260510101837 | 40 | 138 | 1.0 | 1.0 | 0.00 | 0.00 | 0.00 | 90 | 1024.3 |
| 20260510100837 | 41 | 140 | 1.0 | 1.0 | 0.00 | 0.00 | 0.00 | 88 | 1024.3 |
| 20260510095838 | 41 | 132 | 0.0 | 0.0 | 0.00 | 0.00 | 0.00 | 87 | 1024.0 |
| 20260510094832 | 41 | 113 | 2.0 | 2.0 | 0.00 | 0.00 | 0.00 | 86 | 1024.0 |
| 20260510093830 | 41 | 130 | 0.0 | 0.0 | 0.00 | 0.00 | 0.00 | 85 | 1023.7 |
| 20260510092828 | 42 | 143 | 1.0 | 1.0 | 0.00 | 0.00 | 0.00 | 85 | 1024.0 |
| 20260510091826 | 42 | 121 | 1.0 | 1.0 | 0.00 | 0.00 | 0.00 | 85 | 1024.1 |
| 20260510090825 | 42 | 63 | 2.0 | 2.0 | 0.00 | 0.00 | 0.00 | 84 | 1024.1 |
| 20260510085824 | 42 | 110 | 1.0 | 1.0 | 0.00 | 0.00 | 0.00 | 84 | 1024.1 |
| 20260510084820 | 42 | 142 | 0.0 | 0.0 | 0.00 | 0.00 | 0.00 | 82 | 1023.8 |
| 20260510083820 | 42 | 139 | 0.0 | 0.0 | 0.00 | 0.00 | 0.00 | 81 | 1024.1 |
| 20260510082818 | 43 | 136 | 2.0 | 3.0 | 0.00 | 0.00 | 0.00 | 80 | 1024.1 |
| 20260510081814 | 43 | 136 | 0.0 | 0.0 | 0.00 | 0.00 | 0.00 | 79 | 1024.0 |
| 20260510080812 | 43 | 138 | 0.0 | 0.0 | 0.00 | 0.00 | 0.00 | 78 | 1024.3 |
| 20260510075810 | 44 | 130 | 1.0 | 1.0 | 0.00 | 0.00 | 0.00 | 77 | 1024.6 |
| 20260510074810 | 44 | 147 | 0.0 | 1.0 | 0.00 | 0.00 | 0.00 | 76 | 1024.5 |
| 20260510073809 | 44 | 146 | 2.0 | 2.0 | 0.00 | 0.00 | 0.00 | 76 | 1024.5 |
| 20260510072807 | 44 | 146 | 0.0 | 0.0 | 0.00 | 0.00 | 0.00 | 75 | 1024.6 |
| 20260510071806 | 44 | 147 | 1.0 | 1.0 | 0.00 | 0.00 | 0.00 | 74 | 1023.8 |
| 20260510070802 | 44 | 41 | 5.0 | 7.0 | 0.00 | 0.00 | 0.00 | 73 | 1023.4 |
| 20260510065758 | 45 | 24 | 7.0 | 9.0 | 0.00 | 0.00 | 0.00 | 72 | 1023.2 |
| 20260510064758 | 45 | 167 | 4.0 | 6.0 | 0.00 | 0.00 | 0.00 | 70 | 1023.2 |
| 20260510063757 | 46 | 28 | 7.0 | 9.0 | 0.00 | 0.00 | 0.00 | 67 | 1022.9 |
| 20260510062756 | 48 | 48 | 4.0 | 4.0 | 0.00 | 0.00 | 0.00 | 62 | 1022.4 |
| 20260510061753 | 51 | 143 | 3.0 | 3.0 | 0.00 | 0.00 | 0.00 | 43 | 1021.8 |
| 20260510060752 | 51 | 76 | 2.0 | 3.0 | 0.00 | 0.00 | 0.00 | 39 | 1021.0 |
| 20260510055751 | 50 | 144 | 1.0 | 1.0 | 0.00 | 0.00 | 0.00 | 42 | 1020.5 |
| 20260510054749 | 50 | 180 | 1.0 | 0.0 | 0.00 | 0.00 | 0.00 | 41 | 1020.3 |
| 20260510053745 | 51 | 180 | 1.0 | 1.0 | 0.00 | 0.00 | 0.00 | 40 | 1020.3 |
| 20260510052743 | 52 | 180 | 0.0 | 0.0 | 0.00 | 0.00 | 0.00 | 40 | 1020.3 |
| 20260510051742 | 52 | 182 | 0.0 | 0.0 | 0.00 | 0.00 | 0.00 | 38 | 1020.4 |
| 20260510050741 | 52 | 134 | 0.0 | 0.0 | 0.00 | 0.00 | 0.00 | 38 | 1020.4 |
| 20260510045741 | 53 | 134 | 0.0 | 0.0 | 0.00 | 0.00 | 0.00 | 39 | 1020.4 |
| 20260510044740 | 54 | 135 | 0.0 | 0.0 | 0.00 | 0.00 | 0.00 | 37 | 1020.5 |
| 20260510043739 | 54 | 138 | 2.0 | 3.0 | 0.00 | 0.00 | 0.00 | 35 | 1020.7 |
| 20260510042734 | 55 | 146 | 2.0 | 2.0 | 0.00 | 0.00 | 0.00 | 35 | 1020.3 |
| 20260510041732 | 56 | 160 | 1.0 | 1.0 | 0.00 | 0.00 | 0.00 | 34 | 1020.4 |
| 20260510040733 | 57 | 158 | 0.0 | 0.0 | 0.00 | 0.00 | 0.00 | 32 | 1021.0 |
| 20260510035730 | 57 | 326 | 2.0 | 2.0 | 0.00 | 0.00 | 0.00 | 31 | 1021.2 |
| 20260510034728 | 57 | 174 | 0.0 | 1.0 | 0.00 | 0.00 | 0.00 | 32 | 1021.3 |
| 20260510033728 | 57 | 142 | 0.0 | 0.0 | 0.00 | 0.00 | 0.00 | 31 | 1021.2 |
| 20260510032728 | 56 | 12 | 4.0 | 7.0 | 0.00 | 0.00 | 0.00 | 32 | 1020.8 |
| 20260510031725 | 56 | 335 | 4.0 | 4.0 | 0.00 | 0.00 | 0.00 | 33 | 1020.4 |
| 20260510030720 | 56 | 189 | 2.0 | 2.0 | 0.00 | 0.00 | 0.00 | 32 | 1019.9 |
| 20260510025716 | 57 | 154 | 0.0 | 0.0 | 0.00 | 0.00 | 0.00 | 31 | 1019.3 |
| 20260510024716 | 58 | 136 | 1.0 | 1.0 | 0.00 | 0.00 | 0.00 | 29 | 1019.4 |
| 20260510023714 | 59 | 138 | 2.0 | 2.0 | 0.00 | 0.00 | 0.00 | 27 | 1018.8 |
| 20260510022713 | 60 | 138 | 1.0 | 1.0 | 0.00 | 0.00 | 0.00 | 25 | 1018.3 |
| 20260510021709 | 60 | 143 | 3.0 | 3.0 | 0.00 | 0.00 | 0.00 | 25 | 1017.9 |
| 20260510020707 | 61 | 118 | 3.0 | 3.0 | 0.00 | 0.00 | 0.00 | 24 | 1018.3 |
| 20260510015704 | 62 | 112 | 7.0 | 9.0 | 0.00 | 0.00 | 0.00 | 22 | 1017.6 |
| 20260510014701 | 62 | 324 | 4.0 | 4.0 | 0.00 | 0.00 | 0.00 | 18 | 1017.1 |
| 20260510013659 | 62 | 128 | 2.0 | 2.0 | 0.00 | 0.00 | 0.00 | 20 | 1016.5 |
| 20260510012655 | 62 | 197 | 1.0 | 2.0 | 0.00 | 0.00 | 0.00 | 20 | 1017.0 |
| 20260510011652 | 62 | 156 | 0.0 | 1.0 | 0.00 | 0.00 | 0.00 | 20 | 1016.7 |
| 20260510010649 | 62 | 187 | 2.0 | 3.0 | 0.00 | 0.00 | 0.00 | 20 | 1015.9 |
| 20260510005649 | 62 | 183 | 2.0 | 2.0 | 0.00 | 0.00 | 0.00 | 20 | 1016.2 |
| 20260510004644 | 63 | 186 | 2.0 | 2.0 | 0.00 | 0.00 | 0.00 | 20 | 1016.0 |
| 20260510003639 | 63 | 179 | 3.0 | 3.0 | 0.00 | 0.00 | 0.00 | 20 | 1016.0 |
| 20260510002635 | 63 | 183 | 2.0 | 2.0 | 0.00 | 0.00 | 0.00 | 20 | 1016.1 |
| 20260510001634 | 63 | 183 | 3.0 | 3.0 | 0.00 | 0.00 | 0.00 | 22 | 1015.9 |
| 20260510000633 | 63 | 186 | 3.0 | 3.0 | 0.00 | 0.00 | 0.00 | 24 | 1016.1 |
| 20260509235632 | 63 | 199 | 4.0 | 4.0 | 0.00 | 0.00 | 0.00 | 23 | 1016.4 |
| 20260509234631 | 63 | 175 | 2.0 | 2.0 | 0.00 | 0.00 | 0.00 | 24 | 1016.2 |
| 20260509233626 | 62 | 199 | 4.0 | 4.0 | 0.00 | 0.00 | 0.00 | 23 | 1016.5 |
| 20260509232625 | 63 | 220 | 4.0 | 6.0 | 0.00 | 0.00 | 0.00 | 24 | 1016.5 |
| 20260509231624 | 64 | 176 | 7.0 | 9.0 | 0.00 | 0.00 | 0.00 | 22 | 1016.6 |
| 20260509230625 | 65 | 278 | 6.0 | 8.0 | 0.00 | 0.00 | 0.00 | 21 | 1016.4 |
| 20260509225623 | 64 | 199 | 9.0 | 14.0 | 0.00 | 0.00 | 0.00 | 21 | 1016.2 |
| 20260509224620 | 64 | 193 | 5.0 | 6.0 | 0.00 | 0.00 | 0.00 | 21 | 1016.5 |
| 20260509223620 | 65 | 192 | 5.0 | 8.0 | 0.00 | 0.00 | 0.00 | 20 | 1016.4 |
| 20260509222620 | 68 | 59 | 7.0 | 10.0 | 0.00 | 0.00 | 0.00 | 18 | 1016.2 |
| 20260509221618 | 67 | 330 | 3.0 | 3.0 | 0.00 | 0.00 | 0.00 | 17 | 1016.5 |
| 20260509220616 | 68 | 307 | 5.0 | 7.0 | 0.00 | 0.00 | 0.00 | 16 | 1016.2 |
| 20260509215614 | 69 | 172 | 2.0 | 3.0 | 0.00 | 0.00 | 0.00 | 16 | 1016.0 |
| 20260509214614 | 69 | 185 | 3.0 | 3.0 | 0.00 | 0.00 | 0.00 | 16 | 1016.1 |
| 20260509213613 | 68 | 189 | 4.0 | 4.0 | 0.00 | 0.00 | 0.00 | 17 | 1016.4 |
| 20260509212613 | 69 | 192 | 4.0 | 4.0 | 0.00 | 0.00 | 0.00 | 18 | 1016.6 |
| 20260509211611 | 71 | 189 | 4.0 | 6.0 | 0.00 | 0.00 | 0.00 | 16 | 1016.9 |
| 20260509210610 | 68 | 204 | 5.0 | 6.0 | 0.00 | 0.00 | 0.00 | 18 | 1016.9 |
| 20260509205608 | 68 | 205 | 4.0 | 4.0 | 0.00 | 0.00 | 0.00 | 19 | 1017.1 |
| 20260509204605 | 69 | 254 | 5.0 | 7.0 | 0.00 | 0.00 | 0.00 | 18 | 1017.4 |
| 20260509203604 | 68 | 151 | 6.0 | 9.0 | 0.00 | 0.00 | 0.00 | 18 | 1017.4 |
| 20260509202602 | 68 | 193 | 4.0 | 6.0 | 0.00 | 0.00 | 0.00 | 18 | 1017.1 |
| 20260509201558 | 68 | 355 | 4.0 | 4.0 | 0.00 | 0.00 | 0.00 | 17 | 1017.1 |
| 20260509200556 | 68 | 156 | 2.0 | 2.0 | 0.00 | 0.00 | 0.00 | 16 | 1017.1 |
| 20260509195554 | 69 | 189 | 3.0 | 3.0 | 0.00 | 0.00 | 0.00 | 15 | 1017.1 |
| 20260509194549 | 71 | 197 | 4.0 | 4.0 | 0.00 | 0.00 | 0.00 | 14 | 1017.3 |
| 20260509193548 | 71 | 131 | 3.0 | 3.0 | 0.00 | 0.00 | 0.00 | 14 | 1017.5 |
| 20260509192547 | 73 | 264 | 6.0 | 9.0 | 0.00 | 0.00 | 0.00 | 13 | 1017.5 |
| 20260509191542 | 71 | 163 | 2.0 | 3.0 | 0.00 | 0.00 | 0.00 | 14 | 1017.5 |
| 20260509190541 | 72 | 159 | 1.0 | 2.0 | 0.00 | 0.00 | 0.00 | 14 | 1017.5 |
| 20260509185537 | 72 | 333 | 6.0 | 9.0 | 0.00 | 0.00 | 0.00 | 13 | 1017.5 |
| 20260509184531 | 71 | 182 | 5.0 | 6.0 | 0.00 | 0.00 | 0.00 | 13 | 1017.6 |
| 20260509183528 | 71 | 332 | 3.0 | 3.0 | 0.00 | 0.00 | 0.00 | 13 | 1017.5 |
| 20260509182527 | 72 | 310 | 4.0 | 4.0 | 0.00 | 0.00 | 0.00 | 13 | 1018.0 |
| 20260509181522 | 70 | 233 | 6.0 | 7.0 | 0.00 | 0.00 | 0.00 | 12 | 1018.0 |
| 20260509180520 | 69 | 42 | 4.0 | 4.0 | 0.00 | 0.00 | 0.00 | 13 | 1017.8 |
| 20260509175519 | 70 | 1 | 8.0 | 10.0 | 0.00 | 0.00 | 0.00 | 12 | 1017.9 |